Main page
Satellite images Climate Cyclones Lightning AirportsFAQ Languages Contact Newsletter About
Weather : Europe Africa North America South America Asia Australia-Oceania Others

shenzhen-cn, Shenzhen, Shenzhen Bao'an International Airport

45004

latitude: , longitude: China, elevation: 22-33N m


METAR: ZGSZ 200700Z 06003MPS 030V110 9999 FEW016 FEW020CB BKN040 23/22 Q1005 RETS NOSIG